time_stamp(utc),avg(mph),gust(mph),direction(deg),12m_air_temp(f),sonic_u(cm/s),sonic_v(cm/s),sonic_w(cm/s),pressure,2m_air_temp(f),pyranometer(W/m^2)
"2019-01-27 00:02:07+00",8.1,9.1,,32.1,348,97,17,1022.22,29.9,0
"2019-01-27 00:07:07+00",8.3,10.3,,32.2,361,106,26,1022.1,30,0
"2019-01-27 00:12:07+00",6.8,7.8,,32.3,284,108,11,1022.17,29.9,0
"2019-01-27 00:17:07+00",7.5,8.5,,32.2,321,95,19,1022.28,29.8,0
"2019-01-27 00:22:07+00",8.0,9.0,,32.3,343,79,23,1022.16,29.8,0
"2019-01-27 00:27:07+00",8.5,8.5,,32.3,361,103,26,1022.11,29.8,0
"2019-01-27 00:32:07+00",8.5,9.5,,32.1,365,90,27,1022.01,29.7,0
"2019-01-27 00:37:07+00",7.7,8.7,,32.1,317,124,13,1022.13,29.8,0
"2019-01-27 00:42:07+00",7.3,8.3,,32.2,298,119,11,1022.03,29.6,0
"2019-01-27 00:47:07+00",6.8,7.8,,32.1,275,114,9,1022.16,29.5,0
"2019-01-27 00:52:07+00",8.1,9.1,,32.3,304,174,20,1022.28,29.3,0
"2019-01-27 00:57:07+00",6.7,7.7,,32.3,243,151,11,1022.35,29.5,0
"2019-01-27 01:02:07+00",5.9,6.9,,32.2,200,143,12,1022.44,29.5,0
"2019-01-27 01:07:07+00",6.4,7.4,,32.4,241,133,15,1022.45,29.5,0
"2019-01-27 01:12:07+00",6.0,7.0,,32.4,251,85,18,1022.43,29.4,0
"2019-01-27 01:17:07+00",6.6,6.6,,32.6,273,103,18,1022.46,29.3,0
"2019-01-27 01:22:07+00",5.8,6.8,,32.7,209,134,16,1022.54,29.2,0
"2019-01-27 01:27:07+00",5.8,6.8,,32.5,204,133,14,1022.54,29.3,0
"2019-01-27 01:32:07+00",5.5,6.5,,32.5,195,128,11,1022.59,29.3,0
"2019-01-27 01:37:07+00",5.9,6.9,,32.6,209,134,12,1022.61,29.4,0
"2019-01-27 01:42:07+00",6.3,6.3,,32.5,205,162,13,1022.6,29.3,0
"2019-01-27 01:47:07+00",5.6,6.6,,32.4,163,149,2,1022.61,29.3,0
"2019-01-27 01:52:07+00",6.8,6.8,,32.6,253,149,16,1022.56,29.1,0
"2019-01-27 01:57:07+00",7.2,7.2,,32.7,271,147,21,1022.55,28.8,0
"2019-01-27 02:02:07+00",6.8,7.8,,32.5,242,159,15,1022.61,28.7,0
"2019-01-27 02:07:07+00",7.2,8.2,,32.8,296,112,14,1022.61,28.5,0
"2019-01-27 02:12:07+00",6.9,7.9,,33,296,104,20,1022.55,28.4,0
"2019-01-27 02:17:07+00",7.1,7.1,,32.8,285,117,8,1022.57,28.1,0
"2019-01-27 02:22:07+00",8.7,9.7,,33,374,112,32,1022.51,28,0
"2019-01-27 02:27:07+00",8.9,8.9,,33.4,377,96,32,1022.44,28.1,0
"2019-01-27 02:32:07+00",7.7,7.7,,33.2,328,33,30,1022.38,28.1,0
"2019-01-27 02:37:07+00",6.8,8.8,,32.3,299,5,31,1022.33,28,0
"2019-01-27 02:42:07+00",6.0,7.0,,32.5,249,17,38,1022.27,28,0
"2019-01-27 02:47:07+00",5.9,6.9,,32.4,252,9,23,1022.21,28.1,0
"2019-01-27 02:52:07+00",8.6,10.6,,32.9,387,5,32,1022.08,28.3,0
"2019-01-27 02:57:07+00",10.8,11.8,,33.3,483,-11,35,1021.96,28.8,0
"2019-01-27 03:02:07+00",12.4,13.4,,33.8,557,-11,30,1021.91,29.5,0
"2019-01-27 03:07:07+00",9.8,9.8,,34,434,-32,20,1021.88,30.6,0
"2019-01-27 03:12:07+00",8.2,9.2,,33.7,356,-53,13,1021.93,31,0
"2019-01-27 03:17:07+00",10.5,11.5,,33.7,464,-39,23,1021.84,31.1,0
"2019-01-27 03:22:07+00",12.2,13.2,,34,546,-53,28,1021.85,31.5,0
"2019-01-27 03:27:07+00",9.5,10.5,,34.2,403,-98,7,1021.78,31.8,0
"2019-01-27 03:32:07+00",10.5,11.5,,34,466,-46,16,1021.73,31.9,0
"2019-01-27 03:37:07+00",10.1,11.1,,34,442,-50,20,1021.65,31.9,0
"2019-01-27 03:42:07+00",10.3,11.3,,34,451,-47,20,1021.63,32,0
"2019-01-27 03:47:07+00",10.7,11.7,,34.2,472,-40,21,1021.59,31.9,0
"2019-01-27 03:52:07+00",11.0,13.0,,34.3,482,-32,26,1021.5,32.1,0
"2019-01-27 03:57:07+00",12.8,13.8,,34.3,574,-20,35,1021.47,32.3,0
"2019-01-27 04:02:07+00",11.8,12.8,,34.4,520,-47,25,1021.4,32.5,0
"2019-01-27 04:07:07+00",11.7,12.7,,34.6,513,-94,13,1021.41,32.7,0
"2019-01-27 04:12:07+00",11.8,12.8,,34.6,509,-132,11,1021.41,32.9,0
"2019-01-27 04:17:07+00",11.6,12.6,,34.7,495,-128,9,1021.3,33,0
"2019-01-27 04:22:07+00",12.1,13.1,,34.8,529,-81,20,1021.24,33.1,0
"2019-01-27 04:27:07+00",12.8,13.8,,34.9,566,-95,16,1021.12,33.2,0
"2019-01-27 04:32:07+00",12.1,14.1,,35,526,-100,22,1021.12,33.3,0
"2019-01-27 04:37:07+00",13.5,15.5,,35.1,602,-81,21,1020.98,33.4,0
"2019-01-27 04:42:07+00",14.0,16.0,,35.2,620,-81,20,1020.86,33.5,0
"2019-01-27 04:47:07+00",13.9,14.9,,35.2,605,-134,12,1020.92,33.6,0
"2019-01-27 04:52:07+00",12.8,14.8,,35.5,549,-138,19,1020.75,34,0
"2019-01-27 04:57:07+00",14.2,16.2,,35.7,599,-191,5,1020.79,34.2,0
"2019-01-27 05:02:07+00",14.9,16.9,,35.8,626,-200,8,1020.68,34.4,0
"2019-01-27 05:07:07+00",14.1,16.1,,35.8,586,-230,2,1020.68,34.4,0
"2019-01-27 05:12:07+00",13.3,15.3,,35.9,549,-214,1,1020.73,34.5,0
"2019-01-27 05:17:07+00",12.3,14.3,,36.1,516,-193,8,1020.74,34.6,0
"2019-01-27 05:22:07+00",12.0,13.0,,35.9,499,-164,17,1020.67,34.6,0
"2019-01-27 05:27:07+00",13.1,14.1,,36.1,545,-223,0,1020.68,34.7,0
"2019-01-27 05:32:07+00",13.4,15.4,,36.2,559,-238,6,1020.51,34.8,0
"2019-01-27 05:37:07+00",11.6,13.6,,36.2,474,-175,2,1020.51,34.7,0
"2019-01-27 05:42:07+00",12.5,14.5,,36.2,523,-195,5,1020.48,34.7,0
"2019-01-27 05:47:07+00",12.8,14.8,,36.4,522,-230,7,1020.47,34.8,0
"2019-01-27 05:52:07+00",11.4,13.4,,36.4,473,-175,0,1020.37,34.9,0
"2019-01-27 05:57:07+00",10.3,12.3,,36.3,407,-194,7,1020.41,34.9,0
"2019-01-27 06:02:07+00",11.9,14.9,,36.5,469,-232,9,1020.38,34.9,0
"2019-01-27 06:07:07+00",10.9,11.9,,36.5,439,-203,13,1020.31,35,0
"2019-01-27 06:12:07+00",9.8,10.8,,36.6,381,-208,8,1020.32,34.9,0
"2019-01-27 06:17:07+00",12.0,13.0,,36.6,459,-267,6,1020.3,34.9,0
"2019-01-27 06:22:07+00",12.6,13.6,,36.8,484,-269,17,1020.29,35,0
"2019-01-27 06:27:07+00",14.3,16.3,,37,511,-337,1,1020.33,35.2,0
"2019-01-27 06:32:07+00",11.7,13.7,,37,433,-267,12,1020.37,35.3,0
"2019-01-27 06:37:07+00",12.3,14.3,,37.1,463,-278,4,1020.25,35.3,0
"2019-01-27 06:42:07+00",12.3,14.3,,37.1,473,-278,9,1020.22,35.3,0
"2019-01-27 06:47:07+00",12.3,13.3,,37.2,444,-297,1,1020.12,35.4,0
"2019-01-27 06:52:07+00",13.8,15.8,,37.3,515,-322,5,1020.13,35.5,0
"2019-01-27 06:57:07+00",13.2,15.2,,37.4,497,-302,7,1020.11,35.6,0
"2019-01-27 07:02:07+00",12.1,14.1,,37.3,436,-302,7,1020.14,35.6,0
"2019-01-27 07:07:07+00",11.2,12.2,,37.3,385,-292,4,1020.16,35.6,0
"2019-01-27 07:12:07+00",12.3,13.3,,37.4,419,-324,-1,1020.16,35.6,0
"2019-01-27 07:17:07+00",10.2,12.2,,37.6,357,-250,1,1020.07,35.7,0
"2019-01-27 07:22:07+00",10.4,11.4,,37.4,379,-247,5,1019.96,35.6,0
"2019-01-27 07:27:07+00",8.2,9.2,,37.5,276,-210,6,1020.03,35.5,0
"2019-01-27 07:32:07+00",11.0,12.0,,37.5,352,-323,3,1019.94,35.5,0
"2019-01-27 07:37:07+00",9.1,11.1,,37.4,243,-301,4,1019.91,35.6,0
"2019-01-27 07:42:07+00",10.8,12.8,,37.5,334,-330,0,1019.92,35.6,0
"2019-01-27 07:47:07+00",11.8,13.8,,37.8,351,-369,0,1019.86,35.6,0
"2019-01-27 07:52:07+00",11.4,12.4,,38,320,-380,-2,1019.89,35.7,0
"2019-01-27 07:57:07+00",10.5,12.5,,38,236,-385,-2,1019.82,35.8,0
"2019-01-27 08:02:07+00",9.7,10.7,,37.7,242,-335,-6,1019.75,35.8,0
"2019-01-27 08:07:07+00",11.2,12.2,,37.7,294,-388,-3,1019.67,35.6,0
"2019-01-27 08:12:07+00",10.8,12.8,,37.9,222,-413,-5,1019.64,35.8,0
"2019-01-27 08:17:07+00",10.8,11.8,,37.7,240,-394,-8,1019.65,35.8,0
"2019-01-27 08:22:07+00",11.3,12.3,,37.9,270,-413,-5,1019.48,35.8,0
"2019-01-27 08:27:07+00",10.5,11.5,,37.9,249,-373,3,1019.41,35.8,0
"2019-01-27 08:32:07+00",11.1,12.1,,37.9,248,-408,-5,1019.4,35.8,0
"2019-01-27 08:37:07+00",10.9,11.9,,37.9,242,-402,-6,1019.41,35.8,0
"2019-01-27 08:42:07+00",10.7,11.7,,37.9,219,-406,-3,1019.41,35.7,0
"2019-01-27 08:47:07+00",11.0,12.0,,38,223,-423,-5,1019.27,35.7,0
"2019-01-27 08:52:07+00",10.9,11.9,,38,205,-418,-3,1019.36,35.7,0
"2019-01-27 08:57:07+00",11.0,12.0,,38.1,198,-428,-7,1019.32,35.7,0
"2019-01-27 09:02:07+00",10.6,11.6,,38.1,179,-418,-5,1019.31,35.7,0
"2019-01-27 09:07:07+00",9.6,10.6,,38,146,-383,-4,1019.18,35.7,0
"2019-01-27 09:12:07+00",10.7,11.7,,38,197,-404,-3,1019.17,35.6,0
"2019-01-27 09:17:07+00",10.7,11.7,,38.1,181,-428,-4,1019.12,35.8,0
"2019-01-27 09:22:07+00",10.9,11.9,,38.1,186,-433,-5,1019.2,35.8,0
"2019-01-27 09:27:07+00",10.4,11.4,,38.1,183,-414,-11,1019.01,36,0
"2019-01-27 09:32:07+00",10.8,11.8,,38.1,188,-431,-2,1018.95,36,0
"2019-01-27 09:37:07+00",11.2,12.2,,38.1,180,-449,-4,1018.98,36,0
"2019-01-27 09:42:07+00",11.1,12.1,,38.2,176,-441,-3,1018.93,36.1,0
"2019-01-27 09:47:07+00",11.2,13.2,,38.2,177,-444,-3,1018.9,36.3,0
"2019-01-27 09:52:07+00",11.7,13.7,,38.3,203,-455,-4,1018.8,36.4,0
"2019-01-27 09:57:07+00",11.1,12.1,,38.4,180,-448,-8,1018.78,36.4,0
"2019-01-27 10:02:07+00",10.2,11.2,,38.2,148,-410,-3,1018.77,36.2,0
"2019-01-27 10:07:07+00",10.5,11.5,,38.1,142,-425,-6,1018.83,36,0
"2019-01-27 10:12:07+00",9.8,10.8,,38.2,120,-401,-5,1018.76,35.8,0
"2019-01-27 10:17:07+00",10.2,11.2,,38,113,-423,-5,1018.74,35.7,0
"2019-01-27 10:22:07+00",10.0,11.0,,38.1,89,-418,-9,1018.79,35.6,0
"2019-01-27 10:27:07+00",9.6,11.6,,38.1,87,-398,-7,1018.8,35.7,0
"2019-01-27 10:32:07+00",9.8,10.8,,38.1,69,-407,-11,1018.78,35.6,0
"2019-01-27 10:37:07+00",9.5,10.5,,38.2,28,-405,-6,1018.73,35.7,0
"2019-01-27 10:42:07+00",9.9,10.9,,38.2,45,-418,-8,1018.68,35.8,0
"2019-01-27 10:47:07+00",10.1,11.1,,38.2,40,-425,-9,1018.62,35.7,0
"2019-01-27 10:52:07+00",10.4,11.4,,38.2,53,-429,-9,1018.63,35.7,0
"2019-01-27 10:57:07+00",10.0,12.0,,38.2,50,-428,-10,1018.53,35.6,0
"2019-01-27 11:02:07+00",10.1,11.1,,38.2,39,-429,0,1018.62,35.8,0
"2019-01-27 11:07:07+00",9.9,10.9,,38.2,53,-425,-12,1018.69,36,0
"2019-01-27 11:12:07+00",9.6,11.6,,38.1,50,-414,-8,1018.58,35.9,0
"2019-01-27 11:17:07+00",10.1,12.1,,38.2,36,-428,-1,1018.7,36.1,0
"2019-01-27 11:22:07+00",10.1,12.1,,38.2,37,-433,-12,1018.7,36.1,0
"2019-01-27 11:27:07+00",10.4,11.4,,38.2,31,-443,-7,1018.69,36.3,0
"2019-01-27 11:32:07+00",10.3,11.3,,38.2,33,-429,-10,1018.65,36.2,0
"2019-01-27 11:37:07+00",10.0,12.0,,38.1,31,-428,-2,1018.67,36.2,0
"2019-01-27 11:42:07+00",10.3,12.3,,38.2,12,-435,-10,1018.76,36.3,0
"2019-01-27 11:47:07+00",10.9,11.9,,38.2,8,-455,-17,1018.68,36.5,0
"2019-01-27 11:52:07+00",10.4,11.4,,38.1,20,-438,-8,1018.67,36.5,0
"2019-01-27 11:57:07+00",10.3,11.3,,38.1,24,-450,-12,1018.52,36.5,0
"2019-01-27 12:02:07+00",10.7,12.7,,38.2,21,-449,-11,1018.56,36.6,0
"2019-01-27 12:07:07+00",10.0,12.0,,38.2,18,-424,-8,1018.59,36.7,0
"2019-01-27 12:12:07+00",10.4,12.4,,38.2,42,-442,-7,1018.47,36.6,0
"2019-01-27 12:17:07+00",10.5,12.5,,38.2,44,-440,-2,1018.45,36.4,0
"2019-01-27 12:22:07+00",11.1,13.1,,38.2,44,-468,-16,1018.46,36.4,0
"2019-01-27 12:27:07+00",9.9,11.9,,38.3,20,-427,-1,1018.68,36.7,0
"2019-01-27 12:32:07+00",10.4,11.4,,38.5,37,-442,-11,1018.57,36.9,0
"2019-01-27 12:37:07+00",9.8,10.8,,38.6,29,-418,-12,1018.48,37,0
"2019-01-27 12:42:07+00",9.2,11.2,,38.6,25,-387,-4,1018.55,37.2,0
"2019-01-27 12:47:07+00",9.4,11.4,,38.7,35,-405,-6,1018.48,37.4,15.5
"2019-01-27 12:52:07+00",9.9,11.9,,38.8,39,-418,-8,1018.49,37.6,31.2
"2019-01-27 12:57:07+00",9.1,12.1,,38.9,17,-386,3,1018.5,38,40.3
"2019-01-27 13:02:07+00",8.8,11.8,,39.1,6,-362,-10,1018.58,38.5,49
"2019-01-27 13:07:07+00",8.3,10.3,,39.3,-3,-339,0,1018.56,38.9,58.2
"2019-01-27 13:12:07+00",10.4,12.4,,39.5,10,-434,-21,1018.59,39.2,67.8
"2019-01-27 13:17:07+00",10.0,12.0,,39.6,13,-416,-4,1018.59,39.5,75.8
"2019-01-27 13:22:07+00",9.6,11.6,,39.8,0,-401,-15,1018.58,39.7,87.4
"2019-01-27 13:27:07+00",10.1,13.1,,40,1,-420,-12,1018.46,40,96.7
"2019-01-27 13:32:07+00",9.4,11.4,,40.2,4,-406,-19,1018.56,40.3,104.7
"2019-01-27 13:37:07+00",10.4,13.4,,40.3,14,-427,-2,1018.54,40.4,115.5
"2019-01-27 13:42:07+00",10.5,13.5,,40.6,-12,-431,-18,1018.42,40.7,124.6
"2019-01-27 13:47:07+00",11.2,14.2,,40.9,11,-462,-19,1018.49,41,134.5
"2019-01-27 13:52:07+00",10.3,14.3,,41,-24,-422,14,1018.33,41.2,144
"2019-01-27 13:57:07+00",10.3,15.3,,41.2,-24,-438,-1,1018.43,41.5,152.9
"2019-01-27 14:02:07+00",9.8,13.8,,41.5,-32,-394,0,1018.25,41.8,161.6
"2019-01-27 14:07:07+00",11.1,15.1,,41.8,-30,-483,-9,1018.29,42.1,169.7
"2019-01-27 14:12:07+00",12.0,16.0,,42,-28,-503,-32,1018.21,42.3,178.2
"2019-01-27 14:17:07+00",11.0,14.0,,42.2,-42,-467,-2,1018.2,42.5,186.6
"2019-01-27 14:22:07+00",14.6,18.6,,42.3,-42,-616,-26,1018.14,42.6,193.5
"2019-01-27 14:27:07+00",11.5,18.5,,42.4,-2,-473,-15,1017.92,42.7,198
"2019-01-27 14:32:07+00",10.6,14.6,,42.5,-69,-435,10,1017.98,42.8,205
"2019-01-27 14:37:07+00",14.9,16.9,,42.7,-60,-625,-20,1017.99,43,210.8
"2019-01-27 14:42:07+00",12.5,14.5,,42.9,-60,-525,-18,1017.87,43.3,210.9
"2019-01-27 14:47:07+00",12.7,19.7,,43.1,-96,-529,4,1017.7,43.4,222.9
"2019-01-27 14:52:07+00",10.7,14.7,,43.3,-63,-451,15,1017.67,43.7,231.1
"2019-01-27 14:57:07+00",11.4,14.4,,43.2,-72,-468,-13,1017.69,43.6,183.3
"2019-01-27 15:02:07+00",13.2,17.2,,43,-67,-566,-30,1017.51,43.4,165
"2019-01-27 15:07:07+00",11.6,15.6,,43,-40,-490,-16,1017.38,43.4,181.1
"2019-01-27 15:12:07+00",11.9,14.9,,43,-99,-489,2,1017.47,43.3,184.9
"2019-01-27 15:17:07+00",15.8,19.8,,43.1,-150,-653,-22,1017.38,43.5,192.9
"2019-01-27 15:22:07+00",16.4,20.4,,43.2,-180,-684,-13,1017.37,43.5,232
"2019-01-27 15:27:07+00",16.6,19.6,,43.3,-178,-697,-11,1017.43,43.8,231.6
"2019-01-27 15:32:07+00",19.4,24.4,,43.5,-169,-800,-22,1017.45,44,220.1
"2019-01-27 15:37:07+00",19.1,24.1,,43.5,-215,-799,-17,1017.58,43.9,199.1
"2019-01-27 15:42:07+00",19.4,25.4,,43.6,-159,-807,-38,1017.59,43.9,213.3
"2019-01-27 15:47:07+00",18.0,23.0,,43.7,-165,-757,-10,1017.59,44.1,237.6
"2019-01-27 15:52:07+00",16.9,24.9,,43.9,-155,-702,-15,1017.47,44.4,238.9
"2019-01-27 15:57:07+00",17.7,23.7,,44.1,-202,-730,1,1017.44,44.8,250.4
"2019-01-27 16:02:07+00",15.5,20.5,,44.2,-156,-646,-12,1017.32,44.8,258.1
"2019-01-27 16:07:07+00",14.0,19.0,,44.4,-163,-587,12,1017.2,45.2,261.1
"2019-01-27 16:12:07+00",18.2,23.2,,44.5,-243,-734,14,1017.14,45.5,257.5
"2019-01-27 16:17:07+00",24.0,30.0,,44.5,-276,-994,-31,1016.98,45.3,255.6
"2019-01-27 16:22:07+00",18.2,25.2,,44.4,-233,-743,13,1016.99,45.2,270.5
"2019-01-27 16:27:07+00",19.8,22.8,,44.5,-223,-808,-3,1016.8,45.4,285
"2019-01-27 16:32:07+00",17.7,22.7,,44.8,-229,-738,0,1016.58,45.7,291.1
"2019-01-27 16:37:07+00",15.5,21.5,,45,-197,-627,9,1016.53,45.9,286.9
"2019-01-27 16:42:07+00",18.7,23.7,,44.8,-196,-783,-7,1016.43,45.9,295.6
"2019-01-27 16:47:07+00",19.0,25.0,,44.7,-239,-787,-27,1016.47,45.7,283.6
"2019-01-27 16:52:07+00",19.3,24.3,,44.7,-193,-786,-16,1016.68,45.5,273.5
"2019-01-27 16:57:07+00",19.6,22.6,,44.8,-246,-809,2,1016.68,45.7,275.5
"2019-01-27 17:02:07+00",21.7,27.7,,44.6,-281,-892,-2,1016.64,45.5,257.1
"2019-01-27 17:07:07+00",23.3,28.3,,44.5,-334,-950,-13,1016.37,45.4,272.5
"2019-01-27 17:12:07+00",25.1,29.1,,44.4,-392,-1014,-21,1016.35,45.3,265.9
"2019-01-27 17:17:07+00",19.8,25.8,,44.4,-268,-798,8,1016.41,45.2,238.5
"2019-01-27 17:22:07+00",18.3,23.3,,44.5,-258,-743,17,1016.4,45.3,240.1
"2019-01-27 17:27:07+00",23.9,27.9,,44.5,-402,-938,-11,1016.3,45.2,239.3
"2019-01-27 17:32:07+00",23.9,29.9,,44.5,-426,-941,-17,1016.2,45.2,241.2
"2019-01-27 17:37:07+00",21.8,24.8,,44.5,-351,-875,-10,1016.12,45.2,230.1
"2019-01-27 17:42:07+00",17.8,22.8,,44.6,-259,-722,3,1015.85,45.4,222.3
"2019-01-27 17:47:07+00",18.3,22.3,,44.5,-293,-740,10,1015.7,45.2,199.4
"2019-01-27 17:52:07+00",22.9,25.9,,44.3,-319,-933,-24,1015.43,45,177.4
"2019-01-27 17:57:07+00",21.5,25.5,,44,-331,-872,-5,1015.22,44.6,165.5
"2019-01-27 18:02:07+00",23.8,26.8,,43.8,-352,-956,-25,1015.06,44.3,139.5
"2019-01-27 18:07:07+00",21.1,25.1,,43.6,-363,-839,-5,1015.02,44,136.6
"2019-01-27 18:12:07+00",19.4,22.4,,43.5,-404,-742,-8,1015.08,43.8,116.1
"2019-01-27 18:17:07+00",16.7,20.7,,43.5,-381,-634,11,1014.87,43.7,103.7
"2019-01-27 18:22:07+00",18.1,21.1,,43.5,-456,-673,16,1014.86,43.6,86.1
"2019-01-27 18:27:07+00",17.5,20.5,,43.4,-465,-648,24,1014.61,43.5,75.3
"2019-01-27 18:32:07+00",16.0,19.0,,43.3,-427,-584,6,1014.54,43.4,69.6
"2019-01-27 18:37:07+00",15.4,18.4,,43.2,-433,-551,4,1014.51,43.2,72.6
"2019-01-27 18:42:07+00",15.8,17.8,,43.3,-429,-568,1,1014.67,43.3,77
"2019-01-27 18:47:07+00",14.1,17.1,,43.3,-441,-443,11,1014.64,43.4,83.2
"2019-01-27 18:52:07+00",15.0,18.0,,43.2,-472,-476,6,1014.77,43.4,135.4
"2019-01-27 18:57:07+00",14.0,16.0,,43.3,-416,-491,-1,1014.59,43.9,174.4
"2019-01-27 19:02:07+00",16.0,18.0,,43.3,-504,-511,-13,1014.41,43.9,148.3
"2019-01-27 19:07:07+00",15.3,17.3,,43.5,-453,-525,13,1014.38,43.9,139.6
"2019-01-27 19:12:07+00",15.7,17.7,,43.6,-457,-557,10,1014.3,44,141.4
"2019-01-27 19:17:07+00",16.7,19.7,,43.6,-490,-578,7,1014.23,44,111.5
"2019-01-27 19:22:07+00",14.5,16.5,,43.7,-398,-522,27,1013.97,44.1,176.3
"2019-01-27 19:27:07+00",19.9,23.9,,43.9,-499,-743,-8,1013.82,44.3,139.8
"2019-01-27 19:32:07+00",17.8,23.8,,44.1,-459,-664,11,1013.9,44.3,117.9
"2019-01-27 19:37:07+00",19.4,21.4,,44.1,-502,-711,3,1013.91,44.2,98.4
"2019-01-27 19:42:07+00",18.9,21.9,,44.1,-494,-703,7,1013.87,44.2,100.8
"2019-01-27 19:47:07+00",12.8,14.8,,44,-313,-481,15,1013.84,44.2,108.8
"2019-01-27 19:52:07+00",14.7,16.7,,43.9,-415,-524,10,1014.02,44.2,106.5
"2019-01-27 19:57:07+00",15.5,19.5,,43.9,-473,-512,9,1014,44.2,105.7
"2019-01-27 20:02:07+00",15.4,18.4,,43.7,-489,-480,36,1014.14,44,94.5
"2019-01-27 20:07:07+00",17.2,19.2,,43.6,-539,-535,6,1014.17,43.9,102.3
"2019-01-27 20:12:07+00",15.4,17.4,,43.5,-488,-465,6,1014.02,43.8,86.5
"2019-01-27 20:17:07+00",16.2,18.2,,43.5,-514,-499,1,1013.92,43.8,130.3
"2019-01-27 20:22:07+00",14.1,18.1,,43.5,-447,-459,27,1013.98,43.8,64.4
"2019-01-27 20:27:07+00",16.4,18.4,,43.3,-511,-532,12,1014,43.4,60.6
"2019-01-27 20:32:07+00",16.2,20.2,,43.3,-499,-525,5,1014.22,43.3,40.3
"2019-01-27 20:37:07+00",15.8,17.8,,43.2,-468,-542,10,1014.24,43.1,42.4
"2019-01-27 20:42:07+00",17.9,19.9,,43.1,-485,-646,-15,1014.09,42.9,39.2
"2019-01-27 20:47:07+00",16.1,18.1,,43,-437,-587,6,1013.89,42.8,42.8
"2019-01-27 20:52:07+00",16.7,18.7,,42.9,-431,-625,0,1013.69,42.7,38.8
"2019-01-27 20:57:07+00",15.4,18.4,,42.8,-417,-559,5,1013.65,42.7,35.2
"2019-01-27 21:02:07+00",15.6,17.6,,42.7,-440,-557,23,1013.62,42.5,16.1
"2019-01-27 21:07:07+00",17.2,21.2,,42.7,-483,-607,14,1013.74,42.3,6.7
"2019-01-27 21:12:07+00",19.1,22.1,,42.9,-549,-673,8,1013.47,42.3,15
"2019-01-27 21:17:07+00",18.6,21.6,,42.8,-511,-674,12,1013.39,42.3,11
"2019-01-27 21:22:07+00",19.1,22.1,,42.7,-555,-679,7,1013.26,42.2,1.9
"2019-01-27 21:27:07+00",18.3,21.3,,42.6,-540,-634,5,1013.43,42.1,0.2
"2019-01-27 21:32:07+00",18.2,21.2,,42.6,-552,-603,15,1013.72,42,0
"2019-01-27 21:37:07+00",19.3,22.3,,42.7,-573,-656,5,1013.7,42,0
"2019-01-27 21:42:07+00",19.0,23.0,,42.7,-586,-632,24,1013.47,42,0
"2019-01-27 21:47:07+00",19.3,23.3,,42.8,-558,-683,-1,1013.95,42.1,0
"2019-01-27 21:52:07+00",19.4,21.4,,42.7,-567,-668,-10,1013.87,42,0
"2019-01-27 21:57:07+00",15.8,19.8,,42.4,-428,-584,21,1013.81,41.8,0
"2019-01-27 22:02:07+00",16.4,18.4,,42.1,-442,-602,-1,1013.85,41.5,0
"2019-01-27 22:07:07+00",14.6,17.6,,42,-388,-535,7,1013.97,41.3,0
"2019-01-27 22:12:07+00",15.0,17.0,,41.9,-335,-565,3,1013.71,41.2,0
"2019-01-27 22:17:07+00",14.0,15.0,,41.8,-314,-531,1,1013.79,41,0
"2019-01-27 22:22:07+00",14.8,16.8,,42,-321,-556,2,1013.68,41.1,0
"2019-01-27 22:27:07+00",15.8,18.8,,42.1,-399,-587,11,1013.84,41.3,0
"2019-01-27 22:32:07+00",15.9,17.9,,42.1,-444,-574,-2,1013.81,41.3,0
"2019-01-27 22:37:07+00",16.8,19.8,,42.2,-437,-611,-8,1013.58,41.3,0
"2019-01-27 22:42:07+00",16.2,18.2,,42.2,-445,-590,14,1013.68,41.4,0
"2019-01-27 22:47:07+00",17.2,19.2,,42.2,-500,-606,8,1014.02,41.4,0
"2019-01-27 22:52:07+00",16.4,19.4,,42.2,-495,-543,3,1013.8,41.4,0
"2019-01-27 22:57:07+00",16.9,19.9,,42.3,-504,-588,5,1013.68,41.4,0
"2019-01-27 23:02:07+00",15.5,17.5,,42,-482,-509,5,1013.82,41.3,0
"2019-01-27 23:07:07+00",14.9,16.9,,41.9,-458,-498,9,1013.79,41.1,0
"2019-01-27 23:12:07+00",14.6,17.6,,41.7,-475,-450,3,1013.87,41,0
"2019-01-27 23:17:07+00",16.8,21.8,,41.7,-574,-459,26,1014.14,40.9,0
"2019-01-27 23:22:07+00",17.5,20.5,,41.8,-589,-479,13,1013.97,41,0
"2019-01-27 23:27:07+00",15.0,17.0,,41.6,-517,-403,25,1013.93,40.9,0
"2019-01-27 23:32:07+00",15.8,17.8,,41.5,-590,-383,18,1014.15,40.7,0
"2019-01-27 23:37:07+00",13.4,15.4,,41.1,-471,-345,22,1013.78,40.5,0
"2019-01-27 23:42:07+00",13.6,15.6,,40.9,-491,-337,15,1013.75,40.2,0
"2019-01-27 23:47:07+00",13.7,15.7,,40.8,-450,-386,5,1013.8,40.1,0
"2019-01-27 23:52:07+00",12.2,14.2,,40.8,-397,-360,17,1013.78,40,0
"2019-01-27 23:57:07+00",12.3,14.3,,40.7,-410,-343,10,1013.71,39.9,0
